Location: Arthez
(43.0833°N, 0.2500°W)
Time: 00:38:55
(UTC+00:00)

SPACEBEE-73 - Visible Passes

Search period start: 15 August 2022 00:00
Search period end: 25 August 2022 00:00
Orbit: 484 x 503 km, 97.2° (Epoch: 14 August)

Date Brightness Start Highest point End Pass type
(mag) Time Alt. Az. Time Alt. Az. Time Alt. Az.
15 Aug ? 20:48:01 10° SSW 20:51:07 27° W 20:54:14 10° NW visible
16 Aug ? 20:25:56 10° S 20:29:25 51° W 20:32:57 10° NNW visible
17 Aug ? 20:04:11 10° SSE 20:07:45 81° ENE 20:11:22 10° N visible
18 Aug ? 19:42:44 10° SE 19:46:08 41° ENE 19:49:32 10° N visible
18 Aug ? 21:18:25 10° WSW 21:19:58 12° W 21:21:34 10° WNW visible
19 Aug ? 20:55:15 10° SSW 20:58:06 22° W 21:00:58 10° NW visible
20 Aug ? 20:33:05 12° SSW 20:36:15 41° W 20:39:41 10° NNW visible
21 Aug ? 20:11:11 12° S 20:14:26 81° WSW 20:18:03 10° NNW visible
22 Aug ? 19:49:16 11° SSE 19:52:39 51° ENE 19:56:10 10° N visible
22 Aug ? 21:26:14 10° W 21:26:35 10° W 21:26:56 10° W visible
23 Aug ? 19:27:49 10° SE 19:30:54 27° ENE 19:34:00 10° NNE visible
23 Aug ? 21:01:58 10° SW 21:04:33 18° W 21:07:08 10° NW visible
24 Aug ? 20:39:51 14° SSW 20:42:32 33° W 20:45:51 10° NNW visible
